GW2818 Weather Reports


Display with metric or nautical units.
time (UTC)temp
F
wind
direction
speed
MPH
gust
MPH
rain 1hr
in
rain 24hr
in
rain mn
in
humidity
%
barometer
mb
20260902230046 85 0 0.0 0.0 0.00 0.00 0.00 76 1016.4
20260902224606 85 0 0.0 1.0 0.00 0.00 0.00 75 1016.3
20260902223047 85 0 0.0 2.0 0.00 0.00 0.00 75 1016.2
20260902221544 86 0 0.0 6.0 0.00 0.00 0.00 73 1016.3
20260902220054 87 0 0.0 3.0 0.00 0.00 0.00 71 1016.5
20260902214616 89 0 0.0 1.0 0.00 0.00 0.00 69 1016.8
20260902213048 89 0 0.0 4.0 0.00 0.00 0.00 71 1016.6
20260902211545 88 177 0.0 3.0 0.00 0.00 0.00 71 1016.5
20260902210055 88 0 0.0 1.0 0.00 0.00 0.00 72 1016.3
20260902204550 88 63 0.0 2.0 0.00 0.00 0.00 71 1016.8
20260902203048 88 0 0.0 1.0 0.00 0.00 0.00 70 1017.0
20260902201552 89 0 0.0 2.0 0.00 0.00 0.00 72 1017.1
20260902200052 89 251 0.0 4.0 0.00 0.00 0.00 71 1017.2
20260902194551 90 264 0.0 3.0 0.00 0.00 0.00 69 1017.2
20260902193046 91 0 0.0 3.0 0.00 0.00 0.00 67 1017.3
20260902191544 92 0 0.0 1.0 0.00 0.00 0.00 71 1017.6
20260902190052 92 148 1.0 4.0 0.00 0.00 0.00 66 1017.8
20260902184550 92 0 0.0 1.0 0.00 0.00 0.00 71 1018.0
20260902183047 92 44 0.0 4.0 0.00 0.00 0.00 67 1018.2
20260902181544 91 0 0.0 2.0 0.00 0.00 0.00 70 1018.1
20260902180049 90 0 0.0 1.0 0.00 0.00 0.00 73 1018.3
20260902174553 89 143 0.0 3.0 0.00 0.00 0.00 75 1018.5
20260902173053 90 0 0.0 3.0 0.00 0.00 0.00 74 1018.7
20260902171553 89 147 0.0 5.0 0.00 0.00 0.00 76 1018.6
20260902170053 88 0 0.0 3.0 0.00 0.00 0.00 76 1018.6
20260902164549 87 0 0.0 2.0 0.00 0.00 0.00 80 1018.8
20260902163051 86 0 0.0 3.0 0.00 0.00 0.00 80 1018.9
20260902161550 85 0 0.0 2.0 0.00 0.00 0.00 81 1019.1
20260902160045 84 0 0.0 3.0 0.00 0.00 0.00 81 1019.2
20260902154543 84 0 0.0 2.0 0.00 0.00 0.00 83 1019.2
20260902153049 83 0 0.0 1.0 0.00 0.00 0.00 84 1019.4
20260902151550 82 0 0.0 1.0 0.00 0.00 0.00 86 1019.3
20260902150050 81 0 0.0 1.0 0.00 0.00 0.00 87 1019.4
20260902144550 80 0 0.0 4.0 0.00 0.00 0.00 89 1019.3
20260902143051 79 0 0.0 0.0 0.00 0.00 0.00 90 1019.2
20260902141550 78 0 0.0 1.0 0.00 0.00 0.00 91 1019.2
20260902140047 77 0 0.0 1.0 0.00 0.00 0.00 92 1019.3
20260902134544 76 0 0.0 2.0 0.00 0.00 0.00 93 1018.8
20260902133053 75 0 0.0 1.0 0.00 0.00 0.00 93 1018.8
20260902131558 74 0 0.0 1.0 0.00 0.00 0.00 93 1019.1
20260902130044 73 0 0.0 1.0 0.00 0.00 0.00 93 1018.8
20260902124542 72 0 0.0 0.0 0.00 0.00 0.00 93 1018.9
20260902123047 72 0 0.0 0.0 0.00 0.00 0.00 93 1019.1
20260902121601 71 0 0.0 0.0 0.00 0.00 0.00 93 1019.1
20260902120044 70 0 0.0 0.0 0.00 0.00 0.00 93 1019.1
20260902114551 70 0 0.0 0.0 0.00 0.00 0.00 93 1018.4
20260902113052 70 0 0.0 0.0 0.00 0.00 0.00 93 1018.3
20260902111547 70 0 0.0 0.0 0.00 0.00 0.00 93 1018.3
20260902110044 69 0 0.0 0.0 0.00 0.00 0.00 93 1018.2
20260902104604 69 0 0.0 0.0 0.00 0.00 0.00 93 1018.1
20260902103058 69 0 0.0 0.0 0.00 0.00 0.00 93 1018.2
20260902101550 69 0 0.0 0.0 0.00 0.00 0.00 93 1018.2
20260902100052 69 0 0.0 0.0 0.00 0.00 0.00 93 1018.3
20260902094551 69 0 0.0 0.0 0.00 0.00 0.00 93 1018.3
20260902093046 69 0 0.0 0.0 0.00 0.00 0.00 93 1018.4
20260902091600 69 0 0.0 0.0 0.00 0.00 0.00 93 1018.5
20260902090056 69 0 0.0 0.0 0.00 0.00 0.00 93 1018.4
20260902084548 70 0 0.0 0.0 0.00 0.00 0.00 93 1018.4
20260902083059 70 0 0.0 0.0 0.00 0.00 0.00 93 1018.3
20260902081554 69 0 0.0 0.0 0.00 0.00 0.00 93 1018.4
20260902080049 70 0 0.0 0.0 0.00 0.00 0.00 93 1018.4
20260902074546 70 0 0.0 0.0 0.00 0.00 0.00 93 1018.3
20260902073047 70 0 0.0 0.0 0.00 0.00 0.00 93 1018.6
20260902071542 70 0 0.0 0.0 0.00 0.00 0.00 93 1018.5
20260902070044 70 0 0.0 0.0 0.00 0.00 0.00 93 1018.5
20260902064552 70 0 0.0 0.0 0.00 0.00 0.00 93 1018.5
20260902063044 71 0 0.0 0.0 0.00 0.00 0.00 93 1018.5
20260902061548 71 0 0.0 0.0 0.00 0.00 0.00 93 1018.5
20260902060043 71 0 0.0 0.0 0.00 0.00 0.00 93 1018.4
20260902054543 71 0 0.0 0.0 0.00 0.00 0.00 93 1018.3
20260902053059 71 0 0.0 0.0 0.00 0.00 0.00 93 1018.4
20260902051544 71 0 0.0 0.0 0.00 0.00 0.00 93 1018.3
20260902050041 72 0 0.0 0.0 0.00 0.00 0.00 93 1018.2
20260902044550 72 0 0.0 0.0 0.00 0.00 0.00 93 1018.1
20260902043114 72 0 0.0 0.0 0.00 0.00 0.00 92 1018.1
20260902041545 72 0 0.0 0.0 0.00 0.00 0.00 92 1018.1
20260902040044 72 0 0.0 0.0 0.00 0.00 0.00 92 1018.0
20260902034550 72 0 0.0 0.0 0.00 0.00 0.00 92 1017.9
20260902033045 73 0 0.0 0.0 0.00 0.00 0.00 91 1017.9
20260902031546 73 0 0.0 0.0 0.00 0.00 0.00 91 1017.8
20260902030050 73 0 0.0 0.0 0.00 0.00 0.00 91 1018.0
20260902024549 74 0 0.0 0.0 0.00 0.00 0.00 90 1018.1
20260902023049 74 0 0.0 0.0 0.00 0.00 0.00 89 1018.0
20260902021542 74 0 0.0 0.0 0.00 0.00 0.00 89 1017.9
20260902020053 75 0 0.0 0.0 0.00 0.00 0.00 88 1017.9
20260902014546 75 0 0.0 0.0 0.00 0.00 0.00 88 1017.9
20260902013044 76 0 0.0 0.0 0.00 0.00 0.00 88 1017.7
20260902011552 76 0 0.0 0.0 0.00 0.00 0.00 87 1017.4
20260902010048 76 0 0.0 0.0 0.00 0.00 0.00 87 1017.4
20260902004549 77 0 0.0 0.0 0.00 0.00 0.00 86 1017.3
20260902003048 78 0 0.0 0.0 0.00 0.00 0.00 85 1017.3
20260902001556 79 0 0.0 0.0 0.00 0.00 0.00 83 1017.4
20260902000056 79 0 0.0 0.0 0.00 0.00 0.00 82 1017.5
20260901234552 80 0 0.0 1.0 0.00 0.00 0.00 80 1017.6
20260901233046 80 0 0.0 1.0 0.00 0.00 0.00 80 1017.5
20260901231609 81 0 0.0 1.0 0.00 0.00 0.00 79 1017.3